Content
SEND FEEDBACK

Daily
Averages
Monthly
Summary
Spain

PALMA, SPAIN


Home > Europe > Spain
Elevation: 26 feet     Latitude: 39 33N     Longitude: 002 44E

WEATHER
 
SELECT A DAY
Number of Records: 297,981;   Date Range: 7/1/96 - 9/3/14
 
SHARE

PRINT THIS DATA

[ ← Previous Day ]
WEATHER ALMANAC - FEBRUARY 24, 2013
[ Next Day → ]
[ °C ]   °F
Weather ElementAverageHighLow
Temperature44.9 °F50 °F (11:30 am)39.2 °F (11:00 pm)
Dewpoint32.4 °F37.4 °F (10:00 pm)27 °F (7:00 am)
Humidity61.4 %93 % (11:00 pm)36 % (1:00 pm)
Barometer29.91 in29.95 in (8:00 pm)29.89 in (12:30 am)
Wind Speed8.9 mph17.3 mph (12:00 pm)
Wind Gust27.6 mph (3:30 pm)
Weather ElementAverage
Visibility6.6 mi
Wind DirectionWSW (253.1 °)

Weather ElementTotal
Precipitation---
Heating Degree Days20.4 (Base 65)
Averaged from 49 records on February 24, 2013
WEATHER CONDITIONS BREAKOUT
WIND DIRECTION BREAKOUT
WEATHER BY HOUR - FEBRUARY 24, 2013
[ °C ]   °F
Local TimeTemperatureDewpointHumidityBarometerVisibilityWind DirectionWind SpeedGust SpeedPrecipitationEventsConditions
12:30 AM44.6 °F32.0 °F61 %29.89 in6.2 miNW (310°)11.5 mphScattered Clouds
1:00 AM42.0 °F29.0 °F47 %29.90 in6.0 miWNW (290°)8.1 mphPartly Cloudy
1:00 AM42.8 °F32.0 °F66 %29.89 in6.2 miWNW (300°)10.4 mphPartly Cloudy
1:30 AM41.0 °F32.0 °F70 %29.89 in6.2 miWest (280°)8.1 mphPartly Cloudy
2:00 AM41.0 °F32.0 °F70 %29.89 in6.2 miWest (280°)9.2 mphPartly Cloudy
2:30 AM42.8 °F32.0 °F66 %29.89 in6.2 miWNW (290°)8.1 mphPartly Cloudy
3:00 AM42.8 °F30.2 °F61 %29.89 in6.2 miNW (320°)9.2 mphPartly Cloudy
3:30 AM42.8 °F30.2 °F61 %29.89 in6.2 miNW (320°)9.2 mphPartly Cloudy
4:00 AM42.8 °F30.2 °F61 %29.89 in6.2 miWNW (300°)6.9 mphScattered Clouds
4:30 AM44.6 °F28.4 °F53 %29.89 in6.2 miWNW (290°)10.4 mphScattered Clouds
5:00 AM42.8 °F28.4 °F57 %29.89 in6.2 miNW (310°)6.9 mphScattered Clouds
5:30 AM42.8 °F30.2 °F61 %29.89 in6.2 miWNW (290°)3.5 mphScattered Clouds
6:00 AM42.8 °F30.2 °F61 %29.89 in6.2 miWNW (300°)6.9 mphScattered Clouds
6:30 AM42.8 °F30.2 °F61 %29.89 in6.2 miWNW (300°)6.9 mphScattered Clouds
7:00 AM41.0 °F27.0 °F46 %29.91 in9.0 miNW (320°)8.1 mphPartly Cloudy
7:00 AM42.8 °F30.2 °F61 %29.89 in6.2 miVariable1.2 mphScattered Clouds
8:00 AM41.0 °F32.0 °F70 %29.89 in6.2 miSSE (150°)5.8 mphScattered Clouds
8:30 AM44.6 °F32.0 °F61 %29.92 in6.2 miNNW (330°)3.5 mphScattered Clouds
9:00 AM46.4 °F33.8 °F62 %29.92 in6.2 miSouth (180°)8.1 mphScattered Clouds
9:30 AM46.4 °F35.6 °F66 %29.92 in6.2 miWSW (240°)5.8 mphScattered Clouds
10:00 AM46.4 °F33.8 °F62 %29.92 in6.2 miWNW (290°)8.1 mphMostly Cloudy
10:30 AM48.2 °F33.8 °F58 %29.92 in6.2 miNW (310°)11.5 mphMostly Cloudy
11:00 AM48.2 °F33.8 °F58 %29.92 in6.2 miNW (310°)12.7 mphScattered Clouds
11:30 AM50.0 °F33.8 °F54 %29.92 in6.2 miNW (320°)15.0 mphScattered Clouds
12:00 PM50.0 °F33.8 °F54 %29.92 in6.2 miNW (310°)17.3 mphScattered Clouds
12:30 PM50.0 °F33.8 °F54 %29.92 in6.2 miWNW (300°)15.0 mphMostly Cloudy
1:00 PM48.0 °F30.0 °F36 %29.92 in19.0 miNW (320°)15.0 mphRainLight Rain
1:00 PM48.2 °F32.0 °F54 %29.92 in6.2 miNW (310°)15.0 mphMostly Cloudy
1:30 PM50.0 °F32.0 °F50 %29.89 in6.2 miNW (310°)17.3 mphMostly Cloudy
2:00 PM48.2 °F32.0 °F54 %29.89 in6.2 miWNW (300°)13.8 mphMostly Cloudy
2:30 PM48.2 °F32.0 °F54 %29.89 in6.2 miNW (310°)15.0 mphMostly Cloudy
3:00 PM48.2 °F32.0 °F54 %29.89 in6.2 miNW (320°)13.8 mphRainLight Rain
3:30 PM50.0 °F32.0 °F50 %29.89 in6.2 miNW (320°)16.1 mph27.6 mphRainLight Rain
4:00 PM50.0 °F32.0 °F50 %29.89 in6.2 miNW (320°)11.5 mphScattered Clouds
4:30 PM48.2 °F30.2 °F50 %29.89 in6.2 miNW (310°)12.7 mphScattered Clouds
5:00 PM48.2 °F32.0 °F54 %29.89 in6.2 miNNW (330°)10.4 mphScattered Clouds
5:30 PM48.2 °F32.0 °F54 %29.89 in6.2 miNW (320°)8.1 mphScattered Clouds
6:00 PM48.2 °F32.0 °F54 %29.89 in6.2 miWNW (300°)5.8 mphScattered Clouds
7:00 PM44.0 °F29.0 °F43 %29.93 in12.0 miWest (270°)4.6 mphPartly Cloudy
7:00 PM44.6 °F33.8 °F66 %29.92 in6.2 miWest (280°)4.6 mphScattered Clouds
7:30 PM44.6 °F33.8 °F66 %29.92 in6.2 miWSW (250°)2.3 mphScattered Clouds
8:00 PM42.8 °F33.8 °F70 %29.95 in6.2 miWSW (240°)6.9 mphScattered Clouds
8:30 PM41.0 °F35.6 °F81 %29.95 in6.2 miVariable1.2 mphScattered Clouds
9:00 PM44.6 °F35.6 °F71 %29.95 in6.2 miVariable2.3 mphScattered Clouds
9:30 PM42.8 °F35.6 °F76 %29.95 in6.2 miENE (70°)5.8 mphScattered Clouds
10:00 PM41.0 °F37.4 °F87 %29.95 in6.2 miNE (50°)11.5 mphRainLight Rain
10:30 PM41.0 °F37.4 °F87 %29.95 in6.2 miEast (100°)6.9 mphScattered Clouds
11:00 PM39.2 °F37.4 °F93 %29.95 in6.2 miEast (90°)6.9 mphScattered Clouds
11:30 PM39.2 °F37.4 °F93 %29.95 in6.2 miNE (40°)3.5 mphScattered Clouds
Hourly data recorded from LEPA, located miles away from Palma, Spain







STORIES FROM OUR PARTNERS